This demonstration page uses our WeatherBlox Daily Observations layout. Learn more.

Left ArrowRight Arrow

38.20091, -84.87328

Hourly Observations for February 8, 2018

Temp ( °F °C ) Dew Point ( °F °C ) Humidity (%) Winds ( mph kmh ) Pressure ( in mb ) Visibility ( mi km ) Precip ( " mm )
12:08 am 00:08 Cloudy 28 -2.2 21 -6.1 75 75 N 7 11 30.45 1031 10 16 0.00 0.00
12:53 am 00:53 Cloudy 27 -2.8 20 -6.7 75 75 NNW 6 9 30.45 1031 10 16 0.00 0.00
1:03 am 01:03 Mostly Cloudy 26 -3.3 20 -6.7 78 78 NNW 6 9 30.45 1031 9 14 0.00 0.00
1:14 am 01:14 Cloudy 26 -3.3 19 -7.2 75 75 NNW 8 13 30.45 1031 10 16 0.00 0.00
1:43 am 01:43 Cloudy 26 -3.3 19 -7.2 75 75 N 6 9 30.45 1031 10 16 0.00 0.00
1:53 am 01:53 Cloudy 25 -3.9 19 -7.2 78 78 N 3 6 30.45 1031 10 16 0.00 0.00
2:53 am 02:53 Cloudy 25 -3.9 18 -7.8 75 75 N 3 6 30.44 1031 10 16 0.00 0.00
3:53 am 03:53 Cloudy 24 -4.4 18 -7.8 77 77 VRB 3 6 30.45 1031 10 16 0.00 0.00
4:53 am 04:53 Cloudy 24 -4.4 18 -7.8 77 77 Calm 30.45 1031 9 14 0.00 0.00
5:42 am 05:42 Partly Cloudy 23 -5 17 -8.3 78 78 Calm 30.50 1033 9 14 0.00 0.00
5:53 am 05:53 Mostly Clear 23 -5 17 -8.3 78 78 Calm 30.46 1032 8 13 0.00 0.00
6:07 am 06:07 Mostly Cloudy 22 -5.6 18 -7.8 85 85 W 3 6 30.50 1033 7 11 0.00 0.00
6:51 am 06:51 Partly Cloudy 21 -6 18 -8 86 86 WNW 5 7 30.50 1033 9 14 0.00 0.00
6:53 am 06:53 Partly Cloudy 22 -5.6 17 -8.3 82 82 WNW 5 7 30.49 1033 9 14 0.00 0.00
7:53 am 07:53 Sunny 20 -6.7 15 -9.4 81 81 W 3 6 30.51 1033 8 13 0.00 0.00
8:53 am 08:53 Sunny 22 -5.6 16 -8.9 78 78 W 3 6 30.52 1034 10 16 0.00 0.00
9:53 am 09:53 Mostly Sunny 25 -3.9 17 -8.3 72 72 VRB 3 6 30.54 1034 10 16 0.00 0.00
10:53 am 10:53 Partly Cloudy 27 -2.8 18 -7.8 69 69 WSW 6 9 30.55 1035 10 16 0.00 0.00
11:53 am 11:53 Mostly Sunny 29 -1.7 18 -7.8 63 63 WSW 8 13 30.54 1034 10 16 0.00 0.00
12:53 pm 12:53 Sunny 31 -0.6 17 -8.3 56 56 WNW 6 9 30.52 1034 10 16 0.00 0.00
1:39 pm 13:39 Mostly Cloudy 33 0.6 19 -7.2 56 56 SW 8 13 30.50 1033 10 16 0.00 0.00
1:53 pm 13:53 Partly Cloudy 33 0.6 18 -7.8 54 54 SW 7 11 30.49 1033 10 16 0.00 0.00
2:53 pm 14:53 Sunny 35 1.7 21 -6.1 57 57 WSW 8 13 30.46 1031 10 16 0.00 0.00
3:53 pm 15:53 Sunny 36 2.2 22 -5.6 57 57 VRB 3 6 30.47 1032 10 16 0.00 0.00
4:53 pm 16:53 Sunny 36 2.2 21 -6.1 55 55 Calm 30.45 1031 10 16 0.00 0.00
5:53 pm 17:53 Sunny 34 1.1 23 -5 64 64 Calm 30.46 1031 10 16 0.00 0.00
6:53 pm 18:53 Clear 31 -0.6 24 -4.4 76 76 Calm 30.45 1031 10 16 0.00 0.00
7:53 pm 19:53 Clear 30 -1.1 22 -5.6 72 72 Calm 30.45 1031 10 16 0.00 0.00
8:53 pm 20:53 Clear 31 -0.6 23 -5 72 72 NE 5 7 30.43 1030 10 16 0.00 0.00
9:53 pm 21:53 Clear 29 -1.7 22 -5.6 75 75 SE 3 6 30.41 1030 10 16 0.00 0.00
10:53 pm 22:53 Clear 28 -2.2 21 -6.1 75 75 Calm 30.39 1029 10 16 0.00 0.00
11:53 pm 23:53 Clear 27 -2.8 21 -6.1 78 78 Calm 30.38 1029 10 16 0.00 0.00

Powered by AerisWeather